Bad Axe, MI

4:44 AM EDT on April 24, 2017 (GMT -0400)
Huron County Memorial

Weather History for KBAX - February, 2013

Change the Weather History Date:

Monday, February 25, 2013

  Actual Average (KP58) Record (KP58)
Temperature  
Mean Temperature 30 °F -  
Max Temperature 34 °F 30 °F 51 °F (2001)
Min Temperature 25 °F 19 °F -4 °F (2003)
Degree Days  
Heating Degree Days 36    
Moisture  
Dew Point 22 °F    
Average Humidity 73    
Maximum Humidity 89    
Minimum Humidity 56    
Precipitation  
Precipitation 0.00 in - - ()
Sea Level Pressure  
Sea Level Pressure 30.17 in    
Wind  
Wind Speed 1 mph (SSE)    
Max Wind Speed 6 mph    
Max Gust Speed -    
Visibility 10 miles    
Events      
Averages and records for this station are not official NWS values.
T = Trace of Precipitation, MM = Missing Value Source: NWS Daily Summary

Daily Weather History Graph

Daily Weather History Graph

Search for Another Location

Airport or City:

Trip Planner

Search our weather history database for the weather conditions in past years. The results will help you decide how hot, cold, wet, or windy it might be!

Date:

Astronomy

Feb. 25, 2013 Rise Set
Actual Time 7:14 AM EST 6:15 PM EST
Civil Twilight 6:45 AM EST 6:44 PM EST
Nautical Twilight 6:12 AM EST 7:18 PM EST
Astronomical Twilight 5:39 AM EST 7:51 PM EST
Moon 6:29 PM EST (2/25) 6:43 AM EST (2/25)
Length of Visible Light 11h 58m
Length of Day
11h 00m
Full, 100% of the Moon is Illuminated
Feb 25
Full
Feb 25
Full
Mar 4
Last Quarter
Mar 11
New
Mar 19
First Quarter

Hourly Weather History & Observations

Time (EST) Temp. Windchill Dew Point Humidity Pressure Visibility Wind Dir Wind Speed Gust Speed Precip Events Conditions
12:13 AM 30.0 °F - 23.0 °F 75% 30.12 in 10.0 mi Calm Calm - N/A   Overcast
12:34 AM 29.8 °F 26.3 °F 22.6 °F 75% 30.12 in 10.0 mi WSW 3.5 mph - N/A   Overcast
12:54 AM 29.5 °F - 23.0 °F 77% 30.12 in 10.0 mi Calm Calm - N/A   Overcast
1:13 AM 28.8 °F - 22.8 °F 78% 30.12 in 10.0 mi Calm Calm - N/A   Overcast
1:34 AM 28.8 °F - 23.5 °F 81% 30.13 in 10.0 mi Calm Calm - N/A   Overcast
1:54 AM 29.3 °F - 23.7 °F 80% 30.13 in 10.0 mi Calm Calm - N/A   Overcast
2:13 AM 28.8 °F - 23.5 °F 81% 30.14 in 10.0 mi Calm Calm - N/A   Overcast
2:34 AM 29.3 °F - 23.4 °F 78% 30.15 in 10.0 mi Calm Calm - N/A   Overcast
2:54 AM 29.3 °F - 23.0 °F 77% 30.15 in 10.0 mi Calm Calm - N/A   Overcast
3:13 AM 29.7 °F - 23.4 °F 77% 30.15 in 10.0 mi Calm Calm - N/A   Overcast
3:34 AM 29.1 °F - 23.0 °F 78% 30.15 in 10.0 mi Calm Calm - N/A   Overcast
3:54 AM 28.4 °F - 23.0 °F 80% 30.15 in 10.0 mi Calm Calm - N/A   Overcast
4:14 AM 28.2 °F - 23.0 °F 81% 30.15 in 10.0 mi Calm Calm - N/A   Overcast
4:34 AM 28.6 °F - 23.0 °F 80% 30.14 in 10.0 mi Calm Calm - N/A   Overcast
4:54 AM 28.0 °F - 23.0 °F 81% 30.15 in 10.0 mi Calm Calm - N/A   Overcast
5:14 AM 27.9 °F - 23.9 °F 85% 30.15 in 10.0 mi Calm Calm - N/A   Overcast
5:34 AM 27.9 °F - 23.9 °F 85% 30.15 in 10.0 mi Calm Calm - N/A   Overcast
5:54 AM 28.0 °F - 24.3 °F 86% 30.16 in 10.0 mi Calm Calm - N/A   Overcast
6:14 AM 28.0 °F - 24.4 °F 86% 30.16 in 10.0 mi Calm Calm - N/A   Overcast
6:34 AM 28.0 °F - 24.3 °F 86% 30.17 in 10.0 mi Calm Calm - N/A   Overcast
6:54 AM 27.9 °F - 24.3 °F 86% 30.17 in 10.0 mi Calm Calm - N/A   Overcast
7:14 AM 27.5 °F - 23.9 °F 86% 30.17 in 10.0 mi Calm Calm - N/A   Overcast
7:34 AM 27.9 °F - 24.6 °F 88% 30.18 in 10.0 mi Calm Calm - N/A   Overcast
7:53 AM 28.0 °F - 24.4 °F 86% 30.19 in 10.0 mi Calm Calm - N/A   Overcast
8:12 AM 28.8 °F - 24.4 °F 84% 30.19 in 10.0 mi Calm Calm - N/A   Overcast
8:34 AM 28.9 °F - 24.4 °F 83% 30.20 in 10.0 mi Calm Calm - N/A   Overcast
8:54 AM 29.3 °F - 24.6 °F 83% 30.20 in 10.0 mi Calm Calm - N/A   Overcast
9:14 AM 30.2 °F - 24.3 °F 79% 30.20 in 10.0 mi Calm Calm - N/A   Overcast
9:34 AM 30.7 °F 27.3 °F 24.4 °F 77% 30.21 in 10.0 mi SSW 3.5 mph - N/A   Overcast
9:54 AM 31.5 °F 28.1 °F 24.6 °F 76% 30.22 in 10.0 mi SW 3.5 mph - N/A   Overcast
10:14 AM 32.2 °F - 22.6 °F 68% 30.21 in 10.0 mi Calm Calm - N/A   Overcast
10:34 AM 33.1 °F 30.0 °F 21.2 °F 62% 30.22 in 10.0 mi WSW 3.5 mph - N/A   Overcast
10:54 AM 33.3 °F - 20.1 °F 59% 30.20 in 10.0 mi Calm Calm - N/A   Overcast
11:14 AM 33.1 °F - 20.3 °F 59% 30.20 in 10.0 mi Calm Calm - N/A   Overcast
11:34 AM 33.4 °F - 19.4 °F 56% 30.19 in 10.0 mi Calm Calm - N/A   Overcast
11:54 AM 33.3 °F - 20.7 °F 60% 30.19 in 10.0 mi Calm Calm - N/A   Overcast
12:14 PM 33.8 °F 29.6 °F 20.1 °F 57% 30.20 in 10.0 mi South 4.6 mph - N/A   Overcast
12:34 PM 33.8 °F - 20.5 °F 58% 30.20 in 10.0 mi Calm Calm - N/A   Overcast
12:54 PM 33.8 °F 30.8 °F 20.1 °F 57% 30.20 in 10.0 mi SSW 3.5 mph - N/A   Overcast
1:14 PM 34.0 °F - 20.1 °F 57% 30.19 in 10.0 mi Calm Calm - N/A   Overcast
1:34 PM 34.2 °F - 20.3 °F 57% 30.18 in 10.0 mi Calm Calm - N/A   Overcast
1:54 PM 34.2 °F - 20.5 °F 57% 30.18 in 10.0 mi Calm Calm - N/A   Overcast
2:14 PM 34.3 °F 30.2 °F 20.5 °F 57% 30.17 in 10.0 mi South 4.6 mph - N/A   Overcast
2:34 PM 34.3 °F 31.4 °F 20.3 °F 57% 30.17 in 10.0 mi SSE 3.5 mph - N/A   Overcast
2:54 PM 34.3 °F 30.2 °F 19.9 °F 56% 30.17 in 10.0 mi SSE 4.6 mph - N/A   Overcast
3:14 PM 34.7 °F 29.6 °F 20.3 °F 56% 30.16 in 10.0 mi South 5.8 mph - N/A   Overcast
3:35 PM 34.7 °F 30.6 °F 20.3 °F 56% 30.16 in 10.0 mi SSE 4.6 mph - N/A   Overcast
3:54 PM 34.3 °F 30.2 °F 20.5 °F 57% 30.16 in 10.0 mi SSE 4.6 mph - N/A   Overcast
4:14 PM 34.5 °F - 20.5 °F 57% 30.17 in 10.0 mi Calm Calm - N/A   Overcast
4:34 PM 34.2 °F 31.2 °F 20.3 °F 57% 30.16 in 7.0 mi SSE 3.5 mph - N/A   Overcast
4:54 PM 34.5 °F 31.6 °F 20.5 °F 57% 30.17 in 10.0 mi South 3.5 mph - N/A   Overcast
5:14 PM 33.4 °F 30.4 °F 21.2 °F 61% 30.17 in 10.0 mi SSE 3.5 mph - N/A   Overcast
5:34 PM 33.4 °F - 21.0 °F 60% 30.16 in 10.0 mi Calm Calm - N/A   Overcast
5:54 PM 33.1 °F - 21.2 °F 62% 30.16 in 10.0 mi Calm Calm - N/A   Overcast
9:11 PM 26.6 °F - 21.2 °F 80% 30.17 in 10.0 mi Calm Calm - N/A   Clear
9:14 PM 26.6 °F - 21.6 °F 81% 30.17 in 10.0 mi Calm Calm - N/A   Clear
9:34 PM 26.6 °F - 21.9 °F 82% 30.17 in 10.0 mi Calm Calm - N/A   Clear
9:54 PM 26.6 °F 22.6 °F 22.3 °F 84% 30.16 in 10.0 mi East 3.5 mph - N/A   Clear
10:14 PM 26.2 °F 22.1 °F 22.6 °F 86% 30.15 in 10.0 mi East 3.5 mph - N/A   Clear
10:34 PM 27.0 °F 23.0 °F 23.5 °F 87% 30.13 in 10.0 mi East 3.5 mph - N/A   Clear
10:54 PM 26.6 °F - 23.5 °F 88% 30.14 in 10.0 mi Calm Calm - N/A   Clear
11:13 PM 25.9 °F 21.7 °F 23.0 °F 89% 30.14 in 10.0 mi East 3.5 mph - N/A   Clear
11:34 PM 26.4 °F - 23.2 °F 88% 30.15 in 10.0 mi Calm Calm - N/A   Clear
11:54 PM 25.3 °F - 22.1 °F 87% 30.15 in 10.0 mi Calm Calm - N/A   Clear